GPS BIIF-1 (PRN 25)

Last updated on Tue Jul 01 2025 00:03:13 GMT+0000 (Coordinated Universal Time)

1 36585U 10022A 25181.50828352 .00000019 00000+0 00000+0 0 9990 2 36585 54.3358 222.7329 0120505 64.0595 333.5506 2.00570671110540
UTC large
Height (km)
Speed (km/s)
/
Latitude / Longitude
Inclination (degrees)
Orbital Period (minutes)
Azimuth
Elevation
Range (km)
Doppler Factor

Next 0 passes for location: London (51.5072 / 0.1276)

Sorry there are no passes over London.